CYGFM03

Last updated on Sun Jan 18 2026 00:02:21 GMT+0000 (Coordinated Universal Time)

1 41891U 16078H 26017.61158936 .00022954 00000+0 37387-3 0 9992 2 41891 34.9411 147.8867 0007049 178.2552 181.8196 15.51636274505507
UTC large
Height (km)
Speed (km/s)
/
Latitude / Longitude
Inclination (degrees)
Orbital Period (minutes)
Azimuth
Elevation
Range (km)
Doppler Factor

Next 0 passes for location: London (51.5072 / 0.1276)

Sorry there are no passes over London.